Terminal Aerodrome Forecast
Issued by NWS

Home | Current Version | Previous Version | Text Only | Print | Product List | Glossary On
Versions: 1 2 3 4 5 6 7 8 9 10 11 12 13 14
000
FTUS42 TJSJ 051736
TAFJMZ
TAF
TJMZ 051736Z 0518/0618 27014KT P6SM FEW025 SCT050
     FM052200 08011KT P6SM FEW040
     FM061530 27015KT P6SM FEW025
      AMD NOT SKED=

USA.gov is the U.S. government's official web portal to all federal, state and local government web resources and services.